Weather History for Tampa, FL

Change the Weather History Date:

Tuesday, December 4, 2012

  Actual Average Record
Temperature  
Mean Temperature 70 °F 65 °F  
Max Temperature 80 °F 74 °F 86 °F (1994)
Min Temperature 60 °F 57 °F 33 °F (1989)
Degree Days  
Heating Degree Days 0 3  
Month to date heating degree days 0 12  
Since 1 July heating degree days 41 56  
Cooling Degree Days 5 3  
Month to date cooling degree days 24 13  
Year to date cooling degree days 3900 3543  
Growing Degree Days 20 (Base 50)    
Moisture  
Dew Point 53 °F    
Average Humidity 60    
Maximum Humidity 90    
Minimum Humidity 30    
Precipitation  
Precipitation 0.00 in 0.07 in 2.04 in (1997)
Month to date precipitation 0.00 0.30  
Year to date precipitation 53.79 44.13  
Sea Level Pressure  
Sea Level Pressure 30.23 in    
Wind  
Wind Speed 4 mph (East)    
Max Wind Speed 10 mph    
Max Gust Speed 17 mph    
Visibility 10 miles    
Events      
T = Trace of Precipitation, MM = Missing Value Source: NWS Daily Summary

Daily Weather History Graph

Daily Weather History Graph

Search for Another Location

Airport:

Trip Planner

Search our weather history database for the weather conditions in past years. The results will help you decide how hot, cold, wet, or windy it might be!

Date:

Astronomy

Dec. 04, 2012 Rise Set
Actual Time 7:06 AM EST 5:34 PM EST
Civil Twilight 6:41 AM EST 5:59 PM EST
Nautical Twilight 6:12 AM EST 6:28 PM EST
Astronomical Twilight 5:43 AM EST 6:57 PM EST
Moon 11:01 PM EST (12/4) 11:17 AM EST (12/4)
Length of Visible Light 11h 18m
Length of Day
10h 27m
Waning Gibbous, 69% of the Moon is Illuminated
Dec 4
Waning Gibbous
Dec 6
Last Quarter
Dec 13
New
Dec 20
First Quarter
Dec 28
Full

Hourly Weather History & Observations

Time (EST) Temp. Dew Point Humidity Pressure Visibility Wind Dir Wind Speed Gust Speed Precip Events Conditions
12:53 AM 62.6 °F 55.4 °F 77% 30.25 in 10.0 mi ENE 3.5 mph - N/A   Clear
1:53 AM 63.0 °F 57.0 °F 81% 30.24 in 10.0 mi East 3.5 mph - N/A   Clear
2:53 AM 63.0 °F 57.0 °F 81% 30.23 in 10.0 mi Calm Calm - N/A   Clear
3:53 AM 61.0 °F 57.0 °F 87% 30.24 in 10.0 mi Calm Calm - N/A   Clear
4:53 AM 60.1 °F 55.9 °F 86% 30.23 in 10.0 mi NNE 3.5 mph - N/A   Clear
5:53 AM 60.1 °F 55.9 °F 86% 30.24 in 10.0 mi NE 3.5 mph - N/A   Clear
6:53 AM 60.1 °F 55.9 °F 86% 30.25 in 10.0 mi Calm Calm - N/A   Clear
7:53 AM 62.1 °F 57.0 °F 84% 30.27 in 10.0 mi East 3.5 mph - N/A   Clear
8:53 AM 66.9 °F 57.0 °F 70% 30.29 in 10.0 mi ENE 4.6 mph - N/A   Clear
9:53 AM 73.0 °F 54.0 °F 51% 30.30 in 10.0 mi Variable 5.8 mph - N/A   Partly Cloudy
10:53 AM 75.0 °F 51.1 °F 43% 30.29 in 10.0 mi ENE 5.8 mph - N/A   Partly Cloudy
11:53 AM 77.0 °F 48.0 °F 36% 30.27 in 10.0 mi ESE 8.1 mph - N/A   Scattered Clouds
12:53 PM 78.1 °F 46.0 °F 32% 30.23 in 10.0 mi SSE 4.6 mph - N/A   Scattered Clouds
1:53 PM 79.0 °F 45.0 °F 30% 30.21 in 10.0 mi Variable 4.6 mph - N/A   Scattered Clouds
2:53 PM 80.1 °F 48.0 °F 32% 30.19 in 10.0 mi ESE 8.1 mph - N/A   Scattered Clouds
3:53 PM 79.0 °F 48.9 °F 35% 30.19 in 10.0 mi Variable 5.8 mph - N/A   Scattered Clouds
4:53 PM 78.1 °F 51.1 °F 39% 30.20 in 10.0 mi ENE 5.8 mph - N/A   Mostly Cloudy
5:53 PM 75.9 °F 53.1 °F 45% 30.20 in 10.0 mi Variable 5.8 mph - N/A   Mostly Cloudy
6:53 PM 73.9 °F 54.0 °F 50% 30.21 in 10.0 mi East 6.9 mph - N/A   Mostly Cloudy
7:53 PM 72.0 °F 55.9 °F 57% 30.22 in 10.0 mi East 5.8 mph - N/A   Clear
8:53 PM 70.0 °F 55.9 °F 61% 30.22 in 10.0 mi East 6.9 mph - N/A   Clear
9:53 PM 69.1 °F 55.0 °F 61% 30.22 in 10.0 mi East 3.5 mph - N/A   Clear
10:53 PM 66.9 °F 55.0 °F 66% 30.21 in 10.0 mi East 4.6 mph - N/A   Clear
11:53 PM 64.9 °F 55.0 °F 70% 30.21 in 10.0 mi Calm Calm - N/A   Mostly Cloudy